Overview Statistics Trail Chart Weather Telemetry Raw packets
 

This is the latest recevied weather packets stored in our database for station/object KE8AFF-13. If no packets are shown the sender has not sent any weather packets the latest 10 day(s).

<< 1 2 3 4 5 >>
Time Temp. Humidity Pressure Rain* Wind** Luminosity Snow
1788607899 20° C 99% 1012.9 hPa 0 mm - 5 W/m² -
1788607594 20° C 99% 1013 hPa 0 mm - 2 W/m² -
1788607290 20° C 99% 1013.1 hPa 0 mm - 0 W/m² -
1788606989 20° C 99% 1012.8 hPa 0 mm - 0 W/m² -
1788606688 20° C 99% 1012.6 hPa 0 mm - 0 W/m² -
1788606388 20° C 99% 1012.8 hPa 0.51 mm - 0 W/m² -
1788606083 20° C 99% 1012.3 hPa 0.51 mm - 0 W/m² -
1788605778 20° C 99% 1012.2 hPa 0 mm - 0 W/m² -
1788605477 20° C 99% 1011.6 hPa 0.51 mm - 0 W/m² -
1788605172 20° C 99% 1011.6 hPa 1.27 mm - 0 W/m² -
1788604867 20° C 99% 1011.4 hPa 2.29 mm - 0 W/m² -
1788604563 20° C 99% 1011.7 hPa 2.29 mm - 0 W/m² -
1788604258 20° C 99% 1013.2 hPa 3.05 mm - 0 W/m² -
1788603948 20° C 99% 1014 hPa 3.56 mm - 0 W/m² -
1788603645 20° C 99% 1014.4 hPa 3.05 mm - 0 W/m² -
1788603343 20° C 99% 1014.5 hPa 3.05 mm - 0 W/m² -
1788603049 20° C 99% 1014.5 hPa 2.29 mm - 0 W/m² -
1788602732 20° C 99% 1014.4 hPa 3.05 mm - 0 W/m² -
1788602431 20° C 99% 1014.3 hPa 4.32 mm - 0 W/m² -
1788602120 20° C 99% 1014.3 hPa 3.56 mm - 0 W/m² -
1788601815 20° C 99% 1014.4 hPa 3.56 mm - 0 W/m² -
1788601510 20° C 99% 1014.4 hPa 2.29 mm - 0 W/m² -
1788601210 20° C 99% 1014.1 hPa 2.29 mm - 0 W/m² -
1788600905 20° C 99% 1014.1 hPa 1.78 mm - 0 W/m² -
1788600601 20° C 99% 1014.2 hPa 1.27 mm - 0 W/m² -

* Rain latest hour (hover to see other rain measurements)
** Current wind speed in m/s (hover to see current wind gust speed)